[[{"header":{"parameterUnit":"m.s-1","parameterCategory":1,"la1":30.2991,"la2":30.254,"lo1":-89.0895,"lo2":-89.0444,"dy":0.0017,"dx":0.0017,"nx":28,"ny":28,"refTime":"2024-02-08T09:00:00:Z","depth":0,"parameterNumber":2,"parameterNumberName":"U-component_of_WINDS"},"data":[0,0,0,0,0,0,0,0,0,0,0,0,0,0,0,0,0,0,0,0,0,0,0,0,0,0,0,0,0,0,0,0,0,0,0,0,0,0,0,0,0,0,0,0,0,0,0,0,0,0,0,0,0,0,0,0,0,0,-2.2623,-2.2624,0,-2.2687,-2.2688,-2.2688,-2.2689,-2.2689,-2.2688,-2.2687,-2.2751,-2.2754,-2.2756,0,0,0,0,0,0,0,0,0,0,0,0,0,-2.2501,-2.2504,-2.2623,-2.2624,-2.2625,-2.2687,-2.2688,-2.2689,-2.2689,-2.2689,-2.2688,-2.2687,-2.2751,-2.2753,-2.2756,0,0,0,0,0,0,0,0,0,0,0,0,0,-2.2559,-2.2504,-2.2623,-2.2632,-2.2634,-2.2687,-2.2688,-2.2689,-2.269,-2.2688,-2.2687,-2.2686,-2.275,-2.2753,-2.2757,-2.2804,0,0,-2.2768,-2.277,0,0,0,0,0,0,0,0,-2.2555,-2.2563,-2.263,-2.2632,-2.2634,-2.2679,-2.2669,-2.2727,-2.269,-2.2669,-2.2687,-2.2686,-2.2728,-2.2734,-2.2748,-2.2807,-2.2809,-2.2768,-2.2771,-2.2772,-2.2773,0,0,0,0,0,0,0,-2.2551,-2.256,-2.2648,-2.2631,-2.2633,-2.2634,-2.2641,-2.268,-2.2704,-2.267,-2.2671,-2.2678,-2.2729,-2.2745,-2.275,-2.281,-2.2768,-2.2772,-2.2774,-2.2775,-2.2912,-2.2913,0,0,0,0,0,0,-2.2546,-2.2557,-2.2646,-2.265,-2.2591,-2.2637,-2.2644,-2.2666,-2.2704,-2.2709,-2.2679,-2.2678,-2.2739,-2.2745,-2.2752,-2.2809,-2.2772,-2.2776,-2.2778,-2.291,-2.2912,-2.2913,0,0,0,0,0,0,-2.2543,-2.2554,-2.2644,-2.2604,-2.2615,-2.264,-2.2664,-2.2668,-2.2683,-2.2711,-2.2715,-2.2691,-2.2738,-2.2747,-2.2791,-2.2811,-2.2777,-2.2781,-2.2909,-2.2911,-2.2913,-2.2924,0,0,0,0,0,0,-2.254,-2.2553,-2.257,-2.2604,-2.2617,-2.2682,-2.2665,-2.267,-2.269,-2.2689,-2.2722,-2.2727,-2.2738,-2.2786,-2.2795,-2.2816,-2.2784,-2.2907,-2.2909,-2.2912,-2.2922,-2.2927,-2.293,0,0,0,0,0,-2.2535,-2.2571,-2.2571,-2.2582,-2.264,-2.2683,-2.269,-2.2702,-2.2691,-2.271,-2.2728,-2.2726,-2.2808,-2.279,-2.28,-2.2823,-2.2905,-2.2909,-2.2912,-2.292,-2.2926,-2.293,0,0,0,0,0,0,-2.2538,-2.2575,-2.2576,-2.2624,-2.265,-2.2683,-2.2706,-2.2708,-2.2737,-2.2735,-2.2749,-2.2757,-2.2801,-2.2817,-2.2796,-2.2871,-2.2856,-2.2861,-2.2858,-2.2864,-2.2868,-2.2862,-2.2787,0,0,0,0,0,-2.2544,-2.2576,-2.2607,-2.2646,-2.2659,-2.2681,-2.2699,-2.2707,-2.2734,-2.2745,-2.2766,-2.2793,-2.2825,-2.2846,-2.2877,-2.2925,-2.2933,-2.2946,-2.295,-2.2953,-2.2957,-2.2985,-2.2991,-2.2924,-2.2924,-2.2924,0,0,-2.2557,-2.2582,-2.26,-2.2647,-2.2668,-2.2701,-2.269,-2.2724,-2.2748,-2.275,-2.2793,-2.281,-2.2841,-2.2888,-2.2909,-2.2902,-2.2978,-2.2958,-2.296,-2.2962,-2.2988,-2.2995,-2.3,-2.2926,-2.2926,-2.2925,0,0,-2.2597,-2.2619,-2.2654,-2.2676,-2.2709,-2.2723,-2.2732,-2.2764,-2.2776,-2.282,-2.2822,-2.2851,-2.2906,-2.2928,-2.2946,-2.2997,-2.2996,-2.3007,-2.3027,-2.3054,-2.3059,-2.3064,-2.3081,-2.3087,-2.3011,-2.3011,-2.3011,0,-2.2609,-2.2658,-2.2672,-2.2706,-2.2727,-2.2732,-2.2768,-2.2788,-2.2829,-2.2843,-2.2835,-2.2905,-2.2926,-2.2978,-2.299,-2.3005,-2.3015,-2.3002,-2.3057,-2.3062,-2.3066,-2.3083,-2.309,-2.3012,-2.3012,-2.3012,-2.3012,0,-2.267,-2.2704,-2.2729,-2.2769,-2.2792,-2.2827,-2.2847,-2.2869,-2.2875,-2.289,-2.2935,-2.2961,-2.2998,-2.3011,-2.3017,-2.3065,-2.3059,-2.3054,-2.3038,-2.3074,-2.3089,-2.3096,-2.3013,-2.3013,-2.3013,-2.3013,0,0,-2.2711,-2.276,-2.2769,-2.2787,-2.2825,-2.2851,-2.2887,-2.2924,-2.2942,-2.2971,-2.3001,-2.3048,-2.3044,-2.3065,-2.3074,-2.3098,-2.3136,-2.309,-2.3091,-2.3096,-2.3189,-2.3191,-2.3199,-2.3137,-2.3138,-2.3139,-2.3186,0,-2.2754,-2.2818,-2.2832,-2.2887,-2.2918,-2.2925,-2.2956,-2.2983,-2.2998,-2.3028,-2.3045,-2.3078,-2.3071,-2.3083,-2.3107,-2.3126,-2.3154,-2.3123,-2.3164,-2.3165,-2.3154,-2.3207,-2.321,-2.3253,-2.3193,-2.3194,-2.3194,0,-2.2812,-2.2843,-2.2901,-2.2935,-2.2949,-2.2977,-2.3012,-2.304,-2.307,-2.308,-2.3105,-2.3112,-2.3149,-2.3134,-2.3186,-2.3164,-2.3182,-2.3194,-2.3196,-2.3199,-2.318,-2.321,-2.3267,-2.3273,-2.3205,-2.3204,-2.3203,0,-2.2835,-2.2892,-2.2933,-2.2949,-2.299,-2.301,-2.3028,-2.3057,-2.3079,-2.311,-2.3123,-2.3158,-2.3177,-2.3204,-2.322,-2.3207,-2.3271,-2.3257,-2.328,-2.3279,-2.3291,-2.329,-2.335,-2.3305,-2.3305,-2.3305,-2.3305,0,-2.2881,-2.2916,-2.2944,-2.297,-2.3009,-2.3027,-2.3065,-2.3083,-2.311,-2.3139,-2.3148,-2.3175,-2.3195,-2.3226,-2.3239,-2.328,-2.3289,-2.3298,-2.33,-2.3296,-2.3295,-2.3307,-2.3303,-2.3307,-2.3307,-2.3306,-2.3306,0,-2.2913,-2.2933,-2.2979,-2.3015,-2.3025,-2.3052,-2.3083,-2.3108,-2.3125,-2.3162,-2.3172,-2.3198,-2.3235,-2.3254,-2.33,-2.3309,-2.3354,-2.3356,-2.3344,-2.3345,-2.3366,-2.3363,-2.3435,-2.3445,-2.3395,-2.3395,-2.3396,0,-2.2939,-2.2967,-2.3006,-2.3026,-2.3045,-2.3077,-2.31,-2.3118,-2.3141,-2.3179,-2.3199,-2.3236,-2.3267,-2.3324,-2.3348,-2.3383,-2.3384,-2.3407,-2.339,-2.3385,-2.3384,-2.3381,-2.3384,-2.341,-2.341,-2.3411,-2.3411,0,-2.2985,-2.2994,-2.3026,-2.3061,-2.3088,-2.3116,-2.3145,-2.3161,-2.3185,-2.321,-2.3247,-2.3271,-2.3318,-2.3354,-2.3392,-2.341,-2.3414,-2.3417,-2.3424,-2.3419,-2.341,-2.3414,-2.3351,-2.3414,-2.3414,-2.3414,-2.3414,-2.3413,-2.3014,-2.3039,-2.307,-2.3105,-2.3129,-2.3156,-2.3182,-2.3202,-2.3234,-2.3274,-2.3283,-2.3323,-2.3354,-2.3404,-2.3424,-2.3455,-2.3451,-2.3461,-2.3464,-2.3465,-2.3466,-2.3407,-2.3462,-2.3462,-2.3462,-2.3462,-2.3462,0,-2.306,-2.3081,-2.3113,-2.3153,-2.3181,-2.3184,-2.3216,-2.3238,-2.3273,-2.3302,-2.3332,-2.3376,-2.3412,-2.3438,-2.3475,-2.3495,-2.3498,-2.3504,-2.3502,-2.3506,-2.3468,-2.3458,-2.3501,-2.3501,-2.3501,-2.3501,-2.3501,-2.3501,-2.3086,-2.3128,-2.3141,-2.3194,-2.3215,-2.3254,-2.3272,-2.3297,-2.3321,-2.3369,-2.3399,-2.3416,-2.3445,-2.3484,-2.3517,-2.3524,-2.3537,-2.3542,-2.3549,-2.3513,-2.3509,-2.3505,-2.3495,-2.3545,-2.3545,-2.3584,-2.3585,-2.3585]},{"header":{"parameterUnit":"m.s-1","parameterCategory":1,"la1":30.2991,"la2":30.254,"lo1":-89.0895,"lo2":-89.0444,"dy":0.0017,"dx":0.0017,"nx":28,"ny":28,"refTime":"2024-02-08T09:00:00:Z","depth":0,"parameterNumber":3,"parameterNumberName":"V-component_of_WINDS"},"data":[0,0,0,0,0,0,0,0,0,0,0,0,0,0,0,0,0,0,0,0,0,0,0,0,0,0,0,0,0,0,0,0,0,0,0,0,0,0,0,0,0,0,0,0,0,0,0,0,0,0,0,0,0,0,0,0,0,0,2.7944,2.7946,0,2.8102,2.8103,2.8105,2.8177,2.8177,2.8177,2.8176,2.8335,2.8339,2.8343,0,0,0,0,0,0,0,0,0,0,0,0,0,2.7704,2.7708,2.7944,2.7946,2.7948,2.8101,2.8103,2.8106,2.8177,2.8177,2.8177,2.8176,2.8333,2.8338,2.8344,0,0,0,0,0,0,0,0,0,0,0,0,0,2.7829,2.7709,2.7943,2.8002,2.8009,2.8101,2.8104,2.8106,2.8177,2.8177,2.8177,2.8176,2.8331,2.8338,2.8344,2.8389,0,0,2.8364,2.8367,0,0,0,0,0,0,0,0,2.7822,2.7838,2.7991,2.7998,2.8006,2.8119,2.8077,2.8201,2.8177,2.8113,2.8176,2.8176,2.8263,2.8275,2.8305,2.8396,2.8403,2.8365,2.8369,2.8372,2.8373,0,0,0,0,0,0,0,2.7813,2.7832,2.8006,2.7994,2.8002,2.802,2.8038,2.8101,2.8187,2.8119,2.8124,2.8142,2.8267,2.8299,2.8309,2.8406,2.8365,2.837,2.8374,2.8377,2.8544,2.8545,0,0,0,0,0,0,2.7795,2.7824,2.8001,2.8011,2.7912,2.8025,2.8044,2.8083,2.8187,2.8202,2.8142,2.8145,2.8288,2.8302,2.8315,2.8376,2.8371,2.8378,2.8381,2.8544,2.8544,2.8545,0,0,0,0,0,0,2.779,2.781,2.7995,2.7919,2.7944,2.8029,2.8072,2.8086,2.8118,2.8205,2.822,2.8159,2.8288,2.8306,2.8371,2.8383,2.8381,2.8386,2.8543,2.8544,2.8545,2.8498,0,0,0,0,0,0,2.7783,2.7808,2.7826,2.7919,2.7948,2.8048,2.8073,2.809,2.813,2.8135,2.8224,2.8239,2.8289,2.8361,2.8377,2.8392,2.8392,2.8542,2.8543,2.8544,2.8498,2.8497,2.8495,0,0,0,0,0,2.7774,2.7805,2.7827,2.7848,2.7972,2.8049,2.8065,2.8123,2.813,2.8149,2.8205,2.8236,2.8379,2.8367,2.8386,2.8403,2.8542,2.8543,2.8544,2.8499,2.8497,2.8495,0,0,0,0,0,0,2.771,2.7818,2.7843,2.7906,2.7968,2.8061,2.8086,2.8119,2.8179,2.8181,2.825,2.8269,2.8329,2.8372,2.8357,2.8453,2.8463,2.8468,2.8422,2.8421,2.8419,2.8408,2.8397,0,0,0,0,0,2.7703,2.7757,2.7849,2.7895,2.7925,2.8,2.8036,2.8075,2.8142,2.8168,2.8229,2.8291,2.8351,2.8388,2.8447,2.8505,2.8526,2.8526,2.8524,2.8522,2.8526,2.8562,2.8564,2.8549,2.8549,2.8549,0,0,2.769,2.7756,2.7785,2.7884,2.7937,2.7991,2.8022,2.8077,2.8118,2.8176,2.8242,2.8289,2.8363,2.8426,2.8456,2.8463,2.8535,2.8524,2.8522,2.8527,2.8564,2.8565,2.8566,2.855,2.8549,2.8549,0,0,2.7693,2.7748,2.7794,2.7846,2.7926,2.7977,2.7987,2.8077,2.811,2.8178,2.8223,2.8273,2.8373,2.8425,2.8464,2.849,2.8521,2.8507,2.8498,2.8533,2.8534,2.8535,2.8546,2.8549,2.851,2.851,2.851,0,2.7666,2.775,2.7812,2.7867,2.7909,2.7966,2.8014,2.8061,2.8156,2.8184,2.8191,2.832,2.8374,2.8451,2.8457,2.8487,2.8502,2.8497,2.8529,2.8531,2.8533,2.8544,2.8548,2.8508,2.8508,2.8509,2.8509,0,2.7713,2.7771,2.7798,2.7891,2.7936,2.7986,2.8057,2.8095,2.8132,2.8181,2.825,2.8317,2.8392,2.8413,2.8448,2.8495,2.8497,2.8516,2.8528,2.8531,2.8543,2.8548,2.8505,2.8506,2.8507,2.8507,0,0,2.768,2.7808,2.7817,2.786,2.7954,2.8,2.8053,2.8128,2.816,2.8224,2.8271,2.8355,2.8374,2.8419,2.846,2.849,2.8509,2.8506,2.8508,2.8505,2.8567,2.8553,2.8557,2.853,2.8531,2.8532,2.8561,0,2.7697,2.7796,2.7855,2.793,2.7985,2.8041,2.8087,2.815,2.8198,2.8251,2.8304,2.8364,2.8383,2.8411,2.8443,2.8499,2.8522,2.8498,2.8574,2.8576,2.8555,2.8562,2.8548,2.8572,2.8566,2.8566,2.8567,0,2.773,2.7795,2.7875,2.7965,2.799,2.8031,2.8106,2.8156,2.8229,2.8262,2.8313,2.8355,2.8414,2.8421,2.8504,2.8486,2.8521,2.8554,2.8556,2.8566,2.8572,2.8574,2.8581,2.8585,2.8574,2.8574,2.8573,0,2.7699,2.7806,2.7869,2.7904,2.801,2.8038,2.8083,2.8156,2.8198,2.8262,2.8291,2.836,2.8399,2.8452,2.8513,2.8512,2.859,2.8601,2.8619,2.8618,2.8633,2.8631,2.8647,2.8654,2.8653,2.8653,2.8653,0,2.7713,2.776,2.7857,2.7896,2.7951,2.8019,2.8072,2.8121,2.8186,2.8235,2.8287,2.8332,2.8409,2.8464,2.8511,2.8573,2.859,2.8618,2.863,2.8614,2.8611,2.8638,2.8639,2.8654,2.8654,2.8654,2.8654,0,2.7688,2.7754,2.7827,2.7922,2.7947,2.7984,2.8065,2.8105,2.8157,2.8219,2.8237,2.8318,2.8385,2.8451,2.854,2.8572,2.8635,2.865,2.8611,2.8618,2.8632,2.863,2.8667,2.8676,2.8675,2.8675,2.8675,0,2.7692,2.7731,2.7831,2.7868,2.7913,2.7972,2.8016,2.8084,2.8128,2.8215,2.8244,2.8316,2.8377,2.8482,2.8549,2.8618,2.8636,2.8644,2.8647,2.863,2.8638,2.8636,2.8641,2.8643,2.8642,2.8642,2.8642,0,2.7694,2.7726,2.7787,2.7861,2.7913,2.7974,2.8036,2.8064,2.8145,2.8191,2.8261,2.8309,2.8402,2.8473,2.8551,2.8597,2.8633,2.8641,2.8649,2.8633,2.8609,2.8624,2.8607,2.864,2.864,2.864,2.864,2.864,2.7685,2.7723,2.78,2.7867,2.7922,2.798,2.8023,2.8081,2.8141,2.8224,2.826,2.8332,2.8405,2.8514,2.856,2.8617,2.8625,2.8636,2.864,2.8642,2.8639,2.86,2.8631,2.8631,2.8631,2.8631,2.8631,0,2.7691,2.7744,2.7805,2.7893,2.7946,2.7977,2.8048,2.8091,2.8154,2.822,2.828,2.8362,2.8431,2.8504,2.8578,2.8609,2.8628,2.8627,2.8625,2.8636,2.8626,2.8613,2.8611,2.8611,2.8611,2.8611,2.8611,2.8611,2.77,2.7766,2.7807,2.7901,2.7954,2.8026,2.8064,2.8118,2.8172,2.8262,2.8321,2.8368,2.8437,2.8517,2.8582,2.8602,2.8627,2.8621,2.8645,2.8635,2.8636,2.8637,2.8625,2.8626,2.8626,2.8651,2.8651,2.8651]}]]